FW2462 Weather Reports


time (UTC)temp
F
wind
direction
speed
knots
gust
knots
rain 1hr
in
rain 24hr
in
rain mn
in
humidity
%
barometer
mb
20260510164356 81 82 1.7 6.1 0.00 0.00 0.00 37 1018.6
20260510163851 81 171 1.7 7.0 0.00 0.00 0.00 37 1018.7
20260510163344 81 278 1.7 7.0 0.00 0.00 0.00 38 1018.7
20260510162842 81 164 0.9 5.2 0.00 0.00 0.00 35 1018.7
20260510162559 81 226 0.9 7.0 0.00 0.00 0.00 36 1018.7
20260510161839 80 73 1.7 7.0 0.00 0.00 0.00 37 1018.8
20260510161556 80 43 1.7 7.0 0.00 0.00 0.00 37 1018.8
20260510160835 80 61 1.7 4.3 0.00 0.00 0.00 37 1018.9
20260510160334 80 35 0.9 3.5 0.00 0.00 0.00 38 1019.0
20260510155834 80 50 0.9 4.3 0.00 0.00 0.00 41 1019.0
20260510155553 79 92 1.7 4.3 0.00 0.00 0.00 37 1019.0
20260510155103 78 306 1.7 4.3 0.00 0.00 0.00 42 1019.0
20260510154333 78 9 2.6 6.1 0.00 0.00 0.00 47 1019.1
20260510153833 78 48 2.6 6.1 0.00 0.00 0.00 48 1019.2
20260510153337 78 68 1.7 7.0 0.00 0.00 0.00 46 1019.2
20260510152833 78 17 1.7 7.8 0.00 0.00 0.00 50 1019.2
20260510152332 77 46 1.7 7.8 0.00 0.00 0.00 49 1019.2
20260510151329 78 68 0.9 4.3 0.00 0.00 0.00 53 1019.2
20260510151053 77 53 1.7 6.1 0.00 0.00 0.00 51 1019.3
20260510150555 77 220 1.7 6.1 0.00 0.00 0.00 51 1019.2
20260510145825 78 14 0.9 3.5 0.00 0.00 0.00 54 1019.2
20260510145318 77 234 0.9 3.5 0.00 0.00 0.00 51 1019.2
20260510145029 77 344 0.9 4.3 0.00 0.00 0.00 53 1019.3
20260510144536 76 276 0.9 4.3 0.00 0.00 0.00 52 1019.2
20260510143801 76 231 0.9 3.5 0.00 0.00 0.00 52 1019.2
20260510143301 76 132 0.9 6.1 0.00 0.00 0.00 53 1019.2
20260510142801 76 320 0.9 6.1 0.00 0.00 0.00 52 1019.1
20260510142258 76 32 0.0 1.7 0.00 0.00 0.00 54 1019.3
20260510141800 75 14 0.9 2.6 0.00 0.00 0.00 56 1019.4
20260510141257 75 241 0.9 2.6 0.00 0.00 0.00 52 1019.3
20260510140757 74 29 0.9 2.6 0.00 0.00 0.00 55 1019.3
20260510140256 74 316 0.0 2.6 0.00 0.00 0.00 57 1019.2
20260510140024 74 16 0.9 3.5 0.00 0.00 0.00 58 1019.2
20260510135256 73 5 0.9 3.5 0.00 0.00 0.00 54 1019.2
20260510134801 73 32 0.0 1.7 0.00 0.00 0.00 56 1019.1
20260510133254 70 302 0.0 3.5 0.00 0.00 0.00 63 1019.0
20260510132755 70 61 0.0 0.9 0.00 0.00 0.00 70 1019.0
20260510132253 69 357 0.0 0.9 0.00 0.00 0.00 72 1019.0
20260510130750 65 315 0.0 0.9 0.00 0.00 0.00 83 1019.0
20260510125510 60 12 0.0 0.0 0.00 0.00 0.00 93 1019.0
20260510124749 59 12 0.0 0.0 0.00 0.00 0.00 92 1019.0
20260510123508 56 358 0.0 0.0 0.00 0.00 0.00 98 1018.7
20260510120743 55 358 0.0 0.0 0.00 0.00 0.00 99 1018.3
20260510120004 54 358 0.0 0.0 0.00 0.00 0.00 98 1018.1
20260510115721 54 358 0.0 0.0 0.00 0.00 0.00 99 1018.1
20260510114736 54 358 0.0 0.0 0.00 0.00 0.00 99 1017.9
20260510114230 53 358 0.0 0.0 0.00 0.00 0.00 98 1017.8
20260510113218 53 358 0.0 0.0 0.00 0.00 0.00 98 1017.6
20260510112712 53 358 0.0 0.0 0.00 0.00 0.00 98 1017.5
20260510112206 52 358 0.0 0.0 0.00 0.00 0.00 98 1017.5
20260510111930 52 359 0.0 0.0 0.00 0.00 0.00 98 1017.4
20260510110648 52 358 0.0 0.0 0.00 0.00 0.00 97 1017.0
20260510110142 52 358 0.0 0.0 0.00 0.00 0.00 97 1017.2
20260510105638 52 358 0.0 0.0 0.00 0.00 0.00 97 1017.2
20260510104624 53 358 0.0 0.0 0.00 0.00 0.00 97 1017.0
20260510104118 53 358 0.0 0.9 0.00 0.00 0.00 97 1016.9
20260510103611 53 358 0.0 0.9 0.00 0.00 0.00 97 1016.8
20260510103105 53 358 0.0 0.0 0.00 0.00 0.00 97 1016.6
20260510102600 53 358 0.0 0.0 0.00 0.00 0.00 97 1016.6
20260510102320 53 358 0.0 0.0 0.00 0.00 0.00 97 1016.6
20260510101812 53 358 0.0 0.0 0.00 0.00 0.00 97 1016.6
20260510101042 54 358 0.0 0.0 0.00 0.00 0.00 97 1016.4
20260510100536 54 358 0.0 0.0 0.00 0.00 0.00 97 1016.5
20260510100030 54 358 0.0 0.0 0.00 0.00 0.00 97 1016.5
20260510095524 54 358 0.0 0.0 0.00 0.00 0.00 97 1016.4
20260510095236 54 358 0.0 0.0 0.00 0.00 0.00 97 1016.3
20260510094512 54 0 0.0 0.0 0.00 0.00 0.00 97 1016.3
20260510094005 54 0 0.0 1.7 0.00 0.00 0.00 97 1016.3
20260510092715 55 318 0.0 0.0 0.00 0.00 0.00 96 1016.2
20260510091942 55 318 0.0 0.9 0.00 0.00 0.00 96 1016.1
20260510091436 55 318 0.0 0.9 0.00 0.00 0.00 96 1016.1
20260510090930 55 300 0.0 0.9 0.00 0.00 0.00 95 1016.1
20260510090424 55 300 0.0 0.0 0.00 0.00 0.00 95 1016.1
20260510085917 55 299 0.0 0.0 0.00 0.00 0.00 95 1016.1
20260510085628 56 299 0.0 0.0 0.00 0.00 0.00 95 1016.1
20260510084906 56 299 0.0 0.0 0.00 0.00 0.00 94 1016.1
20260510084400 56 300 0.0 0.0 0.00 0.00 0.00 94 1016.0
20260510083348 56 299 0.0 0.9 0.00 0.00 0.00 93 1015.8
20260510082848 57 299 0.0 0.9 0.00 0.00 0.00 93 1015.8
20260510082606 57 299 0.0 0.9 0.00 0.00 0.00 93 1015.7
20260510081830 57 299 0.0 0.0 0.00 0.00 0.00 92 1015.7
20260510081324 58 299 0.0 0.0 0.00 0.00 0.00 91 1015.6
20260510080818 58 299 0.0 0.9 0.00 0.00 0.00 91 1015.5
20260510080535 58 299 0.0 0.9 0.00 0.00 0.00 91 1015.4
20260510075806 58 299 0.0 1.7 0.00 0.00 0.00 90 1015.4
20260510075300 58 353 0.0 1.7 0.00 0.00 0.00 91 1015.3
20260510074000 57 188 0.0 0.0 0.00 0.00 0.00 97 1015.3
20260510073236 57 188 0.0 0.0 0.00 0.00 0.00 97 1015.3
20260510072730 58 186 0.0 0.0 0.00 0.00 0.00 97 1015.3
20260510072224 57 165 0.0 0.0 0.00 0.00 0.00 97 1015.2
20260510071719 58 165 0.0 0.0 0.00 0.00 0.00 97 1015.1
20260510071439 58 166 0.0 0.0 0.00 0.00 0.00 97 1015.2
20260510070720 58 165 0.0 0.0 0.00 0.00 0.00 97 1015.3
20260510070220 58 153 0.0 0.9 0.00 0.00 0.00 97 1015.2
20260510065720 58 153 0.0 0.9 0.00 0.00 0.00 97 1015.4
20260510065217 58 340 0.0 0.0 0.00 0.00 0.00 97 1015.3
20260510064718 58 341 0.0 0.9 0.00 0.00 0.00 96 1015.3
20260510064439 58 341 0.0 0.9 0.00 0.00 0.00 96 1015.4
20260510063217 59 340 0.0 0.0 0.00 0.00 0.00 96 1015.1
20260510062717 59 340 0.0 0.0 0.00 0.00 0.00 96 1015.2
20260510062217 59 340 0.0 0.0 0.00 0.00 0.00 96 1015.2
20260510061715 59 340 0.0 0.0 0.00 0.00 0.00 96 1015.3
20260510061212 59 340 0.0 0.0 0.00 0.00 0.00 96 1015.2
20260510060712 59 340 0.0 0.9 0.00 0.00 0.00 95 1015.2
20260510060214 60 341 0.0 0.9 0.00 0.00 0.00 95 1015.3
20260510055944 60 341 0.0 0.0 0.00 0.00 0.00 95 1015.3
20260510055214 60 341 0.0 0.0 0.00 0.00 0.00 94 1015.3
20260510054938 60 340 0.0 0.0 0.00 0.00 0.00 94 1015.3
20260510054202 60 340 0.0 0.0 0.00 0.00 0.00 94 1015.3
20260510053921 61 340 0.0 0.0 0.00 0.00 0.00 93 1015.4
20260510053150 61 340 0.0 0.0 0.00 0.00 0.00 93 1015.4
20260510052644 61 341 0.0 0.0 0.00 0.00 0.00 92 1015.4
20260510052406 62 340 0.0 0.0 0.00 0.00 0.00 92 1015.5
20260510051639 62 340 0.0 0.0 0.00 0.00 0.00 91 1015.4
20260510051139 62 340 0.0 0.9 0.00 0.00 0.00 91 1015.5
20260510050638 63 340 0.0 0.9 0.00 0.00 0.00 91 1015.5
20260510050139 63 39 0.0 0.9 0.00 0.00 0.00 91 1015.5
20260510045358 63 39 0.0 0.0 0.00 0.00 0.00 90 1015.7
20260510044636 63 39 0.0 1.7 0.00 0.00 0.00 89 1015.6
20260510044135 64 38 0.9 2.6 0.00 0.00 0.00 89 1015.5
20260510043135 64 282 0.0 2.6 0.00 0.00 0.00 89 1015.5
20260510042131 64 240 0.9 4.3 0.00 0.00 0.00 89 1015.5
20260510041630 64 266 0.9 3.5 0.00 0.00 0.00 88 1015.5
20260510041132 64 221 0.9 3.5 0.00 0.00 0.00 88 1015.5
20260510040851 64 242 0.9 3.5 0.00 0.00 0.00 88 1015.5
20260510040131 64 213 0.9 3.5 0.00 0.00 0.00 88 1015.5
20260510035631 64 213 0.9 2.6 0.00 0.00 0.00 88 1015.6
20260510035131 64 244 0.9 3.5 0.00 0.00 0.00 88 1015.6
20260510034630 64 252 0.9 3.5 0.00 0.00 0.00 88 1015.6
20260510034131 64 295 0.9 3.5 0.00 0.00 0.00 87 1015.6
20260510033628 64 199 0.9 3.5 0.00 0.00 0.00 88 1015.6
20260510033128 64 268 0.9 3.5 0.00 0.00 0.00 87 1015.7
20260510032853 64 204 0.9 4.3 0.00 0.00 0.00 87 1015.6
20260510032133 64 215 0.9 4.3 0.00 0.00 0.00 87 1015.7
20260510031627 64 157 0.9 2.6 0.00 0.00 0.00 87 1015.5
20260510030345 65 207 1.7 4.3 0.00 0.00 0.00 86 1015.5
20260510025625 65 186 1.7 3.5 0.00 0.00 0.00 86 1015.4
20260510025340 65 162 0.9 3.5 0.00 0.00 0.00 86 1015.4
20260510024656 65 219 0.9 2.6 0.00 0.00 0.00 86 1015.3
20260510024120 65 181 0.9 2.6 0.00 0.00 0.00 86 1015.3
20260510023843 65 199 0.9 2.6 0.00 0.00 0.00 85 1015.3
20260510023121 65 150 0.9 2.6 0.00 0.00 0.00 85 1015.2
20260510022619 65 203 0.9 2.6 0.00 0.00 0.00 85 1015.3
20260510022346 65 217 0.9 2.6 0.00 0.00 0.00 85 1015.3
20260510021621 65 168 0.9 2.6 0.00 0.00 0.00 85 1015.2
20260510021341 65 217 0.9 2.6 0.00 0.00 0.00 85 1015.0
20260510020615 65 207 0.9 1.7 0.00 0.00 0.00 84 1015.1
20260510020336 65 221 0.9 2.6 0.00 0.00 0.00 84 1015.2
20260510015617 66 158 0.9 2.6 0.00 0.00 0.00 84 1015.1
20260510015115 66 208 0.9 2.6 0.00 0.00 0.00 84 1015.0
20260510014615 66 210 0.9 2.6 0.00 0.00 0.00 84 1015.0
20260510014115 66 195 0.9 3.5 0.00 0.00 0.00 83 1014.9
20260510013616 66 201 0.9 3.5 0.00 0.00 0.00 83 1014.7
20260510013344 66 213 0.9 2.6 0.00 0.00 0.00 83 1014.6
20260510012612 66 212 0.9 2.6 0.00 0.00 0.00 83 1014.5
20260510012333 66 221 0.0 2.6 0.00 0.00 0.00 83 1014.5
20260510011613 66 184 0.0 1.7 0.00 0.00 0.00 82 1014.3
20260510011333 67 180 0.9 1.7 0.00 0.00 0.00 82 1014.2
20260510010838 67 207 0.9 2.6 0.00 0.00 0.00 82 1014.2
20260510010114 67 165 0.9 2.6 0.00 0.00 0.00 81 1014.1
20260510005612 68 163 0.9 3.5 0.00 0.00 0.00 80 1014.1
20260510005115 68 224 0.9 3.5 0.00 0.00 0.00 80 1014.0
20260510004614 68 231 0.9 2.6 0.00 0.00 0.00 79 1013.8
20260510004107 69 181 1.7 4.3 0.00 0.00 0.00 79 1013.8
20260510003823 69 147 1.7 4.3 0.00 0.00 0.00 78 1013.8
20260510003322 69 239 1.7 4.3 0.00 0.00 0.00 77 1013.7
20260510002550 69 195 1.7 4.3 0.00 0.00 0.00 77 1013.7
20260510002044 69 210 1.7 4.3 0.00 0.00 0.00 76 1013.8
20260510001537 70 218 1.7 5.2 0.00 0.00 0.00 76 1013.7
20260510001032 70 198 1.7 5.2 0.00 0.00 0.00 75 1013.7
20260510000525 70 160 0.9 4.3 0.00 0.00 0.00 74 1013.5
20260510000021 70 203 0.9 3.5 0.00 0.00 0.00 73 1013.5
20260509235513 70 257 0.9 4.3 0.00 0.00 0.00 73 1013.4
20260509235008 71 183 1.7 4.3 0.00 0.00 0.00 73 1013.4
20260509234501 71 214 0.9 3.5 0.00 0.00 0.00 72 1013.5
20260509233955 71 173 1.7 4.3 0.00 0.00 0.00 72 1013.2
20260509233450 71 207 1.7 5.2 0.00 0.00 0.00 71 1013.0
20260509232944 71 217 2.6 5.2 0.00 0.00 0.00 71 1013.0
20260509232657 71 156 0.9 5.2 0.00 0.00 0.00 71 1012.9
20260509231931 72 161 0.0 3.5 0.00 0.00 0.00 71 1012.7
20260509231425 72 218 0.9 2.6 0.00 0.00 0.00 71 1013.0
20260509230919 72 213 0.9 2.6 0.00 0.00 0.00 71 1012.8
20260509230414 72 178 0.0 1.7 0.00 0.00 0.00 71 1012.8
20260509225907 72 197 0.0 1.7 0.00 0.00 0.00 71 1012.6
20260509225620 72 236 0.0 0.9 0.00 0.00 0.00 71 1012.6
20260509224855 72 236 0.0 2.6 0.00 0.00 0.00 70 1012.7
20260509224349 72 274 0.9 2.6 0.00 0.00 0.00 69 1012.5
20260509224115 72 236 0.9 4.3 0.00 0.00 0.00 69 1012.4
20260509223337 73 206 2.6 5.2 0.00 0.00 0.00 68 1012.6
20260509222831 73 181 1.7 5.2 0.00 0.00 0.00 67 1012.7
20260509222325 73 165 1.7 5.2 0.00 0.00 0.00 68 1012.5
20260509221820 74 214 1.7 5.2 0.00 0.00 0.00 65 1012.6
20260509221314 75 276 1.7 5.2 0.00 0.00 0.00 65 1012.6
20260509220807 75 274 2.6 7.0 0.00 0.00 0.00 64 1012.5
20260509220532 76 184 3.5 7.0 0.00 0.00 0.00 64 1012.6
20260509215756 76 156 3.5 9.6 0.00 0.00 0.00 65 1012.7
20260509215250 75 131 4.3 9.6 0.00 0.00 0.00 64 1012.5
20260509214743 75 271 3.5 9.6 0.00 0.00 0.00 65 1012.6
20260509214238 74 229 1.7 5.2 0.00 0.00 0.00 66 1012.5
20260509213958 74 269 1.7 5.2 0.00 0.00 0.00 67 1012.4
20260509213226 74 93 2.6 6.1 0.00 0.00 0.00 66 1012.4
20260509212720 75 168 2.6 6.1 0.00 0.00 0.00 66 1012.5
20260509212213 75 264 3.5 7.8 0.00 0.00 0.00 67 1012.4
20260509211707 74 229 2.6 7.8 0.00 0.00 0.00 66 1012.5
20260509211202 74 229 1.7 7.8 0.00 0.00 0.00 66 1012.4
20260509210656 74 254 1.7 5.2 0.00 0.00 0.00 66 1012.1
20260509210150 75 238 1.7 5.2 0.00 0.00 0.00 63 1012.0
20260509205643 75 214 1.7 6.1 0.00 0.00 0.00 65 1012.1
20260509205137 74 226 2.6 6.1 0.00 0.00 0.00 64 1012.0
20260509204632 75 255 1.7 5.2 0.00 0.00 0.00 63 1012.1
20260509204126 74 221 2.6 8.7 0.00 0.00 0.00 63 1012.1
20260509203620 74 210 3.5 8.7 0.00 0.00 0.00 63 1012.3
20260509203113 75 203 2.6 7.8 0.00 0.00 0.00 62 1012.3
20260509202608 75 167 2.6 7.0 0.00 0.00 0.00 63 1012.3
20260509202102 74 232 3.5 8.7 0.00 0.00 0.00 63 1012.3
20260509201556 74 194 3.5 8.7 0.00 0.00 0.00 62 1012.3
20260509201049 76 221 3.5 7.0 0.00 0.00 0.00 60 1012.3
20260509200545 76 208 2.6 7.0 0.00 0.00 0.00 60 1012.4
20260509200043 76 219 2.6 8.7 0.00 0.00 0.00 61 1012.4
20260509195542 75 162 3.5 8.7 0.00 0.00 0.00 61 1012.4
20260509195042 75 203 2.6 7.8 0.00 0.00 0.00 60 1012.4
20260509194541 74 236 2.6 8.7 0.00 0.00 0.00 61 1012.6
20260509194039 75 205 3.5 8.7 0.00 0.00 0.00 61 1012.7
20260509193817 76 205 3.5 9.6 0.00 0.00 0.00 59 1012.7
20260509193037 75 210 4.3 9.6 0.00 0.00 0.00 59 1012.7
20260509192538 76 214 3.5 8.7 0.00 0.00 0.00 60 1012.7
20260509192037 75 259 3.5 8.7 0.00 0.00 0.00 60 1012.6
20260509191538 75 283 3.5 8.7 0.00 0.00 0.00 59 1012.7
20260509191042 75 220 3.5 8.7 0.00 0.00 0.00 61 1012.7
20260509190801 76 300 2.6 7.8 0.00 0.00 0.00 60 1012.6
20260509190037 74 320 1.7 5.2 0.00 0.00 0.00 63 1012.5
20260509185539 74 296 2.6 7.0 0.00 0.00 0.00 61 1012.6
20260509185531 75 150 2.6 7.0 0.00 0.00 0.00 61 1012.7
20260509184538 75 211 1.7 6.1 0.00 0.00 0.00 61 1012.8
20260509184259 75 180 1.7 6.1 0.00 0.00 0.00 63 1012.6
20260509183532 74 220 2.6 7.0 0.00 0.00 0.00 65 1012.8
20260509183026 74 155 2.6 7.0 0.00 0.00 0.00 63 1013.0
20260509182520 74 290 2.6 7.0 0.00 0.00 0.00 63 1013.1
20260509182016 74 286 1.7 7.0 0.00 0.00 0.00 64 1013.1
20260509181739 74 86 1.7 6.1 0.00 0.00 0.00 66 1013.1
20260509181017 73 262 3.5 10.4 0.00 0.00 0.00 65 1013.3
20260509180518 72 297 3.5 10.4 0.00 0.00 0.00 67 1013.3
20260509180015 72 198 2.6 10.4 0.00 0.00 0.00 68 1013.4
20260509175515 72 264 1.7 6.1 0.00 0.00 0.00 66 1013.7
20260509175014 72 103 1.7 6.1 0.00 0.00 0.00 63 1013.8
20260509174516 72 186 2.6 6.1 0.00 0.00 0.00 64 1013.7
20260509174014 73 173 3.5 7.8 0.00 0.00 0.00 63 1013.8
20260509173244 73 169 1.7 5.2 0.00 0.00 0.00 65 1013.9
20260509172515 72 257 2.6 7.8 0.00 0.00 0.00 65 1013.9
20260509172016 72 326 2.6 7.8 0.00 0.00 0.00 67 1013.8
20260509171513 72 189 2.6 6.1 0.00 0.00 0.00 64 1013.8
20260509171013 72 262 2.6 7.0 0.00 0.00 0.00 66 1013.8
20260509170511 71 228 2.6 7.0 0.00 0.00 0.00 66 1014.0
20260509170012 71 248 3.5 9.6 0.00 0.00 0.00 69 1014.1
20260509165510 71 245 2.6 9.6 0.00 0.00 0.00 67 1014.1
20260509165011 70 150 2.6 7.8 0.00 0.00 0.00 68 1014.2